Location: ???????
(37.9763°N, 23.8889°E)
Time: 09:57:16
(UTC+00:00)

YAOGAN 6 - Pass Details

Date: 15 June 2024
Orbit: 405 x 430 km, 97.2° (Epoch: 22 July)

Event Time Altitude Azimuth Distance (km) Brightness Sun altitude
Rises 01:25:41 0° 27° (NNE) 2,370 7.6 -15.5°
Reaches altitude 10° 01:28:02 10° 43° (NE) 1,494 6.5 -15.2°
Maximum altitude 01:30:32 21° 96° (E) 980 4.6 -14.8°
Drops below altitude 10° 01:33:01 10° 148° (SSE) 1,470 4.9 -14.5°
Enters shadow 01:34:00 - 157° (SSE) 1,817 5.2 -14.3°
